Location: Laura�t
(43.9341°N, 0.2497°E)
Time: 00:21:16
(UTC+00:00)

DMSP B5D2-2 - Pass Details

Date: 03 March 2021
Orbit: 789 x 806 km, 98.3° (Epoch: 17 April)

Event Time Altitude Azimuth Distance (km) Brightness Sun altitude
Rises 19:47:58 0° 10° (N) 3,309 7.3 -21.9°
Reaches altitude 10° 19:50:20 10° 8° (N) 2,373 6.6 -22.3°
Maximum altitude 19:55:31 67° 287° (WNW) 861 4.4 -23.2°
Drops below altitude 10° 20:00:39 10° 206° (SSW) 2,348 6.6 -24.1°
Sets 20:02:58 0° 203° (SSW) 3,272 7.4 -24.5°
